Location: Woodhurst
(52.3667°N, 0.0667°W)
Time: 20:45:08
(UTC+00:00)

GP-B - Pass Details

Date: 19 May 2025
Orbit: 619 x 623 km, 89.8° (Epoch: 18 June)

Event Time Altitude Azimuth Distance (km) Brightness Sun altitude
Rises 23:08:25 0° 7° (N) 2,918 7.9 -16.9°
Reaches altitude 10° 23:10:49 10° 16° (NNE) 2,005 6.6 -17.0°
Maximum altitude 23:14:51 35° 83° (E) 1,018 4.1 -17.1°
Enters shadow 23:16:41 25° 128° (SE) 1,278 4.3 -17.1°
